Showing default

QIANFAN-56, 62786

Orbit data source: Space-Track

QIANFAN-56, 62786 is a Chinese payload satellite in LEO that was launched on Thu, 23 Jan 2025 UTC via a CHANG ZHENG 6A launch vehicle from the Taiyaun Space Center, China (TSC). Payload-class satellites include a variety of spacecraft equipped with specific instruments for various scientific and technological missions. These include communications satellites like Starlink; space stations such as the ISS; scientific satellites like the Hubble; Earth observation satellites from companies like Planet Labs, Umbra, and HawkEye 360; GPS; miniature CubeSats for education and research; and military/defense satellites.

Loading next visibility...
Identifier
62786, 2025-016B
Orbit
LEO
Country
Flag of CNCN / PRC
Related business
Manufacturer
SECM
Mission
Operational Commercial Communications
Bus & Motor
QIANFAN, Unknown motor
Mass
267 kg wet, ~267 kg dry
Launch date (UTC)
2025-01-23 (11 months ago)
Launch vehicle
CHANG ZHENG 6A
Launch site
Taiyaun Space Center, China (TSC)
Object type
Payload
Rocket body
Debris
Shape & HBR
Box + 1 Pan, 1.1 m
Radar Cross Section
13.200 m², Large (>1 m²)

Expand to show TLE details & history
Last TLE update: 8 hours ago

TLE from 8 hours ago
0 QIANFAN-56
1 62786U 25016B   25352.56926342  .00000144  00000-0  20448-3 0  9997
2 62786  88.9757 102.4436 0014821 338.8055  21.2480 13.50980190 48020
Epoch: 2025-12-18T13:39Z
TLE epoch observation values (Epoch: 2025-12-18T13:39:44.359Z)
Latitude
-0.00006°
Longitude
170.08588°
Altitude
1,061.321 km
Speed
7.326 km/s
True Right ascension
06h 49m 46s
True Declination
0° 00' 00"
Sunlit
Object was in full shadow at epoch
Visualization orbit readout
Latitude
Unknown
Longitude
Unknown
Altitude
Unknown
Speed
Unknown
Apparent Right ascension
Unknown
Apparent Declination
Unknown
Sunlit
N/A
Visualization observer readout
Local Sidereal Time
20:56:18
Azimuth
Unknown
Elevation
Unknown
Doppler factor
Unknown
Orbital elements
Apogee altitude
1,076.738 km
Perigee altitude
1,054.673 km
Semi-major axis
7,443.843 km
Eccentricity
0.00148
Inclination
88.9757°
RAAN
102.4436°
Arg. of periapsis
338.8055°
True anomaly
21.30966°
Mean anomaly
21.248°
Eccentric anomaly
21.27882°
Mean motion
3.37946 °/min
Orbital period
106.53 mins
BSTAR
0.00020448
Loading maneuver chart data...
Computing Atmospheric mass density...
Loading historical data...
Loading historical data...
Loading historical data...
Loading historical data...
Loading historical data...
Loading historical data...
Loading historical data...

Documentation

Showing up to 5 results
|